TimeAKST,TemperatureF,Dew PointF,Humidity,Sea Level PressureIn,VisibilityMPH,Wind Direction,Wind SpeedMPH,Gust SpeedMPH,PrecipitationIn,Events,Conditions,WindDirDegrees,DateUTC
12:55 AM,-8.1,-13.0,79,30.46,10.0,Calm,Calm,-,N/A,,Clear,0,2013-03-04 09:55:00
1:55 AM,-10.1,-15.2,78,30.47,8.0,Calm,Calm,-,0.00,,Clear,0,2013-03-04 10:55:00
2:07 AM,-11.2,-16.6,77,30.47,4.0,Calm,Calm,-,N/A,,Haze,0,2013-03-04 11:07:00
2:18 AM,-11.2,-16.6,77,30.47,7.0,Calm,Calm,-,N/A,,Clear,0,2013-03-04 11:18:00
2:55 AM,-12.6,-18.0,77,30.48,10.0,ESE,3.5,-,N/A,,Clear,110,2013-03-04 11:55:00
3:55 AM,-12.6,-17.9,78,30.48,10.0,Calm,Calm,-,N/A,,Clear,0,2013-03-04 12:55:00
4:55 AM,-13.4,-18.9,76,30.49,10.0,Calm,Calm,-,N/A,,Clear,0,2013-03-04 13:55:00
5:55 AM,-11.7,-17.0,78,30.51,10.0,Calm,Calm,-,N/A,,Clear,0,2013-03-04 14:55:00
6:15 AM,-11.2,-16.6,77,30.51,2.5,Calm,Calm,-,N/A,Snow,Light Snow,0,2013-03-04 15:15:00
6:19 AM,-11.2,-16.6,77,30.51,2.5,Calm,Calm,-,N/A,Snow,Light Snow,0,2013-03-04 15:19:00
6:31 AM,-11.2,-18.4,70,30.51,5.0,Calm,Calm,-,N/A,,Clear,0,2013-03-04 15:31:00
6:38 AM,-13.0,-20.2,70,30.51,5.0,Calm,Calm,-,N/A,,Haze,0,2013-03-04 15:38:00
6:55 AM,-13.4,-18.9,76,30.51,10.0,Calm,Calm,-,0.00,,Clear,0,2013-03-04 15:55:00
7:55 AM,-14.6,-20.2,76,30.51,9.0,Calm,Calm,-,N/A,,Clear,0,2013-03-04 16:55:00
8:55 AM,-10.3,-15.7,77,30.51,10.0,Calm,Calm,-,N/A,,Clear,0,2013-03-04 17:55:00
9:55 AM,-8.0,-13.2,78,30.50,10.0,Calm,Calm,-,N/A,,Clear,0,2013-03-04 18:55:00
10:55 AM,-1.3,-6.0,81,30.49,10.0,Calm,Calm,-,N/A,,Clear,0,2013-03-04 19:55:00
11:55 AM,4.3,-0.2,82,30.47,10.0,Calm,Calm,-,N/A,,Clear,0,2013-03-04 20:55:00
12:55 PM,9.5,3.0,75,30.46,10.0,Calm,Calm,-,N/A,,Clear,0,2013-03-04 21:55:00
1:55 PM,15.3,5.9,67,30.44,10.0,Calm,Calm,-,N/A,,Clear,0,2013-03-04 22:55:00
2:55 PM,16.5,7.9,69,30.42,10.0,North,3.5,-,N/A,,Clear,360,2013-03-04 23:55:00
3:55 PM,17.6,7.7,65,30.40,10.0,Calm,Calm,-,N/A,,Clear,0,2013-03-05 00:55:00
4:55 PM,17.1,8.4,69,30.39,10.0,Calm,Calm,-,N/A,,Clear,0,2013-03-05 01:55:00
5:55 PM,15.6,8.4,73,30.37,10.0,Calm,Calm,-,N/A,,Clear,0,2013-03-05 02:55:00
6:55 PM,10.8,8.1,89,30.36,10.0,Calm,Calm,-,N/A,,Clear,0,2013-03-05 03:55:00
7:55 PM,4.6,0.9,84,30.36,10.0,Calm,Calm,-,N/A,,Clear,0,2013-03-05 04:55:00
8:55 PM,4.3,0.5,84,30.34,10.0,Calm,Calm,-,N/A,,Clear,0,2013-03-05 05:55:00
9:55 PM,1.8,-2.4,83,30.33,10.0,Calm,Calm,-,N/A,,Clear,0,2013-03-05 06:55:00
10:55 PM,2.1,-1.8,83,30.32,10.0,Calm,Calm,-,N/A,,Clear,0,2013-03-05 07:55:00
11:55 PM,-0.9,-5.3,82,30.31,10.0,Calm,Calm,-,N/A,,Clear,0,2013-03-05 08:55:00